Torna al catalogo

SL-8 R/B

AttivoLEO
NORAD 14760·ROCKET BODY·🇷🇺 Russia

Lanciato Feb 21, 1984 da Plesetsk Cosmodrome

Loading…

Prossimi Passaggi (prossime 24 ore)

TLE

AggiornatoSource: Space-Track

Epoca: Sep 14, 2026, 10:01 UTC

1 14760U 84019B   26257.41777045  .00000066  00000-0  30972-4 0  9994
2 14760  74.0429  44.2991 0027058 156.3868 203.8535 14.37240684228089

Traccia SL-8 R/B in tempo reale con AllMySat

Download on the App Store